Flag for Germany

Past Weather in Bielefeld, North Rhine-Westphalia, Germany — Yesterday and Last 2 Weeks

Now
52 °F

Clear.


Feels Like: 50 °F
Forecast: 60 / 47 °F
Wind: 6 mph from South

Location: Paderborn / Lippstadt
Current Time: Sep 28, 2020 at 1:02:29 am
Latest Report: Sep 27, 2020 at 9:50 pm
Visibility: 10 mi
Pressure29.74 "Hg
Humidity: 77%
Dew Point: 45 °F
Location of BielefeldLocation

Past Weather in Bielefeld — Graph

°F

Bielefeld Temperature Yesterday

Maximum temperature yesterday: 54 °F (at 3:20 pm)
Minimum temperature yesterday: 45 °F (at 5:50 am)
Average temperature yesterday: 50 °F

High & Low Weather Summary for the Past Weeks

 TemperatureHumidityPressure
High86 °F (Sep 14, 2:50 pm)94% (Sep 26, 6:50 pm)30.39 "Hg (Sep 26, 6:50 pm)
Low45 °F (Sep 18, 4:20 am)19% (Sep 19, 4:20 pm)29.39 "Hg (Sep 26, 5:20 am)
Average62 °F56%29.95 "Hg
* Reported Sep 12 9:20 pm — Sep 27 9:50 pm, Bielefeld. Weather by CustomWeather, © 2020

Note: Actual official high and low records may vary slightly from our data, if they occured in-between our weather recording intervals... More about our weather records

Bielefeld Weather History for the Previous 24 Hours

Scroll right to see more
 ConditionsComfort  
Time TempWeatherWind HumidityBarometerVisibility
9:50 pm
Sun, Sep 27
52 °FClear.6 mph77%29.74 "Hg10 mi
9:20 pm52 °FClear.5 mph77%29.74 "Hg10 mi
8:50 pm52 °FPassing clouds.5 mph77%29.74 "HgN/A
8:20 pm52 °FPassing clouds.5 mph77%29.74 "HgN/A
7:50 pm52 °FOvercast.3 mph77%29.71 "HgN/A
7:20 pm52 °FPassing clouds.2 mph72%29.71 "HgN/A
6:50 pm54 °FPartly sunny.5 mph67%29.71 "HgN/A
6:20 pm54 °FPartly sunny.5 mph67%29.71 "HgN/A
5:50 pm54 °FPartly sunny.6 mph67%29.71 "HgN/A
5:20 pm54 °FPartly sunny.6 mph67%29.68 "HgN/A
4:50 pm54 °FOvercast.6 mph67%29.68 "HgN/A
4:20 pm54 °FOvercast.7 mph67%29.68 "HgN/A
3:50 pm54 °FOvercast.6 mph67%29.65 "HgN/A
3:20 pm54 °FPartly sunny.6 mph67%29.65 "HgN/A
2:50 pm52 °FPartly sunny.7 mph72%29.65 "HgN/A
2:20 pm52 °FMore clouds than sun.7 mph72%29.65 "HgN/A
1:50 pm52 °FPartly sunny.7 mph72%29.65 "HgN/A
1:20 pm50 °FOvercast.8 mph71%29.62 "HgN/A
12:50 pm52 °FPartly sunny.7 mph77%29.62 "HgN/A
12:20 pm50 °FPartly sunny.7 mph71%29.59 "HgN/A
11:50 am50 °FPartly sunny.6 mph76%29.59 "HgN/A
11:20 am50 °FPartly sunny.7 mph76%29.59 "HgN/A
10:50 am48 °FPartly sunny.7 mph82%29.59 "HgN/A
10:20 am48 °FOvercast.6 mph82%29.56 "HgN/A
9:20 am48 °FPartly sunny.7 mph82%29.56 "HgN/A
8:50 am46 °FPartly sunny.5 mph82%29.53 "HgN/A
8:20 am46 °FPartly sunny.5 mph82%29.50 "HgN/A
7:50 am46 °FScattered clouds.6 mph82%29.47 "HgN/A
7:20 am45 °FSunny.9 mph87%29.45 "Hg10 mi
6:50 am45 °FClear.9 mph87%29.45 "Hg10 mi
6:20 am45 °FClear.9 mph87%29.42 "Hg10 mi
5:50 am45 °FPassing clouds.8 mph87%29.42 "HgN/A
5:20 am46 °FMostly cloudy.8 mph82%29.39 "HgN/A
4:50 am46 °FPassing clouds.9 mph87%29.39 "HgN/A
4:20 am46 °FMostly cloudy.8 mph87%29.39 "HgN/A
Weather by CustomWeather, © 2020

See weather overview